Location: Bremen
(53.0793°N, 8.8017°E)
Time: 22:44:00
(UTC+01:00)

Transit 2A - Pass Details

Date: 27 November 2022
Orbit: 593 x 963 km, 66.7° (Epoch: 05 February)

Event Time Altitude Azimuth Distance (km) Brightness Sun altitude
Rises 19:18:49 0° 314° (NW) 3,170 9.8 -26.7°
Reaches altitude 10° 19:21:21 10° 304° (WNW) 2,304 9.2 -27.1°
Maximum altitude 19:25:52 29° 245° (WSW) 1,457 7.9 -27.7°
Drops below altitude 10° 19:30:44 10° 188° (S) 2,503 8.7 -28.5°
Sets 19:33:37 0° 177° (S) 3,493 9.4 -28.9°
